Weather observations for the past three days for
North Platte, North Platte Regional Airport
Imperial (Metric)
Date Time (cdt) Wind (mph) Vis. (mi.) Weather Sky Cond. Temperature (ºF) Relative Humidity Wind Chill (°F) Heat Index (°F) Pressure Precipitation (in)
Air Dwpt 6 hour altimeter (in) sea level (mb) 1 hr 3 hr 6 hr
Max. Min.
17 22:53 E 9 10.00 Mostly Cloudy BKN070 72 61 68% 30.2 1020.0
17 21:53 E 7 10.00 Overcast OVC060 71.1 62.1 73% 30.2 1020.3
17 20:53 SE 7 10.00 Fair CLR 73 61 66% 30.19 1020.0
17 19:53 SE 9 10.00 Fair CLR 75.9 61 60% 78 30.18 1019.6
17 18:53 SE 8 10.00 Fair CLR 78.1 62.1 84.9 78.1 58% 80 30.17 1019.5
17 17:53 SE 13 G 20 10.00 A Few Clouds FEW048 80.1 61 52% 81 30.18 1019.9
17 16:53 E 10 10.00 Fair CLR 82.9 61 48% 83 30.18 1019.7
17 15:53 SE 14 10.00 Mostly Cloudy SCT044 BKN060 82 63 53% 83 30.19 1019.9
17 14:53 SE 9 10.00 Mostly Cloudy BKN047 84 63 49% 85 30.21 1020.3
17 13:53 E 10 G 18 10.00 Mostly Cloudy BKN037 81 63 54% 82 30.21 1020.8
17 12:53 E 8 G 18 10.00 Mostly Cloudy BKN037 BKN045 82.9 64.9 82.9 61 55% 85 30.22 1020.8
17 11:53 E 9 10.00 Partly Cloudy SCT029 80.1 64.9 60% 82 30.22 1020.8
17 10:53 E 9 10.00 Fair CLR 77 64.9 66% 79 30.22 1021.1
17 09:53 E 7 10.00 Mostly Cloudy BKN046 73 64.9 76% 30.22 1021.3
17 08:53 NE 7 10.00 Fair CLR 71.1 64 79% 30.22 1020.9
17 07:53 Calm 10.00 Fair CLR 64.9 60.1 84% 30.19 1019.9
17 06:53 Calm 10.00 A Few Clouds FEW090 61 57.9 64.9 60.1 90% 30.18 1019.9
17 05:53 Calm 10.00 Fair CLR 60.1 57 90% 30.17 1018.8
17 04:53 Calm 10.00 Fair CLR 61 57.9 90% 30.15 1018.3
17 03:53 Calm 10.00 Fair CLR 63 57.9 84% 30.14 1017.9
17 02:53 NW 3 10.00 Fair CLR 63 57.9 84% 30.12 1017.1
17 01:53 Calm 10.00 Fair CLR 63 60.1 90% 30.11 1016.6
17 00:53 Calm 10.00 Fair CLR 64.9 61 80.1 64 87% 30.12 1017.2 0.05
16 23:53 N 3 10.00 Mostly Cloudy BKN070 BKN080 64.9 62.1 90% 30.11 1017.2
16 22:53 Calm 10.00 Partly Cloudy SCT065 64.9 61 87% 30.1 1016.9
16 21:53 Vrbl 5 6.00 Light Rain FEW035 SCT085 BKN100 66.9 61 81% 30.06 1015.6 0.05 0.05
16 20:53 SE 8 10.00 Fair CLR 70 59 68% 30.04 1015.0
16 19:53 SE 10 10.00 Fair CLR 80.1 69.1 69% 83 30 1013.1
16 18:53 E 16 10.00 Fair CLR 78.1 66 91 78.1 67% 80 29.98 1012.8
16 17:53 SE 3 10.00 Fair CLR 91 62.1 38% 92 29.97 1011.5
16 16:53 Calm 10.00 Fair CLR 91 62.1 38% 92 29.98 1011.9
16 15:53 E 7 10.00 Fair CLR 89.1 62.1 41% 89 29.98 1012.1
16 14:53 W 3 10.00 Fair CLR 88 64.9 46% 90 30 1012.6
16 13:53 Calm 10.00 Fair CLR 88 66 48% 90 30.01 1012.8
16 12:53 Calm 10.00 Fair CLR 84 66.9 84.9 66 57% 87 30.01 1013.2
16 11:53 W 5 10.00 Fair CLR 81 66.9 62% 83 30.02 1013.6
16 10:53 Calm 10.00 Fair CLR 78.1 66.9 69% 80 30.02 1013.8
16 09:53 NW 5 10.00 A Few Clouds FEW015 75 66 74% 76 30.03 1013.9
16 08:53 Vrbl 5 10.00 Fair CLR 72 64.9 79% 30.01 1013.3
16 07:53 N 5 10.00 Partly Cloudy SCT110 68 64 87% 30 1012.9
16 06:53 N 8 10.00 Fair CLR 66 63 73.9 66 90% 29.99 1012.6 0.01 0.1
16 05:53 S 10 7.00 Rain FEW045 SCT060 OVC090 68 63 84% 29.99 1012.2
16 04:53 E 3 10.00 Mostly Cloudy SCT100 BKN120 66.9 63 87% 29.96 1011.4 0.03
16 03:53 NE 9 5.00 Light Rain Fog/Mist FEW046 OVC100 66.9 63 87% 29.96 1011.1 0.05 0.06
16 02:53 E 15 10.00 Light Rain FEW080 BKN110 70 62.1 76% 29.94 1010.4 0.01
16 01:53 NW 13 G 24 10.00 Mostly Cloudy BKN110 73 61 66% 30.02 1013.1
16 00:53 NW 12 10.00 Fair CLR 73.9 59 90 71.1 60% 29.96 1011.2
15 23:53 NE 9 10.00 Fair CLR 73.9 61 64% 29.96 1011.0
15 22:53 N 22 G 41 10.00 Light Rain and Breezy BKN090 72 63 73% 30 1012.9
15 21:53 Calm 10.00 Fair CLR 75.9 64.9 69% 78 29.95 1010.9
15 20:53 SE 3 10.00 Fair CLR 80.1 66 62% 82 29.92 1010.1
15 19:53 SE 5 10.00 Fair CLR 84.9 64.9 51% 87 29.9 1009.6
15 18:53 E 8 10.00 Fair CLR 90 60.1 93.9 90 37% 90 29.9 1009.3
15 17:53 NE 10 10.00 Fair CLR 91.9 59 33% 91 29.91 1009.6
15 16:53 E 9 10.00 Fair CLR 93.9 59 31% 93 29.92 1010.0
15 15:53 NE 13 10.00 Fair CLR 91.9 57.9 32% 91 29.94 1010.5
15 14:53 NE 14 G 22 10.00 Fair CLR 91 55.9 31% 89 29.95 1010.9
15 13:53 NE 15 G 26 10.00 Fair CLR 91.9 60.1 34% 92 29.95 1010.8
15 12:53 NE 21 G 30 10.00 Fair and Breezy CLR 91.9 57.9 91.9 68 32% 91 29.93 1010.1
15 11:53 NE 18 G 26 10.00 Fair CLR 90 60.1 37% 90 29.93 1010.1
15 10:53 NW 9 10.00 Fair CLR 86 66 51% 88 29.92 1010.0
15 09:53 SW 6 10.00 Fair CLR 82 63 53% 83 29.9 1009.5
15 08:53 NW 6 10.00 Fair CLR 73 62.1 69% 29.92 1010.1
15 07:53 Calm 10.00 Fair CLR 69.1 63 81% 29.89 1009.2
15 06:53 Calm 10.00 Fair CLR 69.1 62.1 75.9 66 78% 29.89 1008.8
15 05:53 S 8 10.00 Fair CLR 72 66 82% 29.89 1008.7
15 04:53 SE 3 9.00 Fair CLR 66.9 64 91% 29.91 1009.7
15 03:53 SE 5 10.00 Fair CLR 66.9 64 91% 29.89 1009.0
15 02:53 NE 3 10.00 Fair CLR 68 64 87% 29.91 1009.7
15 01:53 NE 3 10.00 Fair CLR 70 64.9 84% 29.93 1010.3
15 00:53 SE 6 10.00 Fair CLR 75 66.9 90 75 76% 76 29.96 1011.2
14 23:53 Calm 10.00 Fair CLR 75.9 70 82% 77 29.97 1011.5
Date Time (cdt) Wind (mph) Vis. (mi.) Weather Sky Cond. Air Dwpt Max. Min. Relative Humidity Wind Chill (°F) Heat Index (°F) altimeter (in) sea level (mb) 1 hr 3 hr 6 hr
6 hour
Temperature (ºF) Pressure Precipitation (in)